Location: Newark
(30.4994°N, 96.8283°W)
Time: 23:08:19
(UTC+00:00)

Envisat - Pass Details

Date: 25 November 2019
Orbit: 764 x 766 km, 98.1° (Epoch: 06 December)

Event Time Altitude Azimuth Distance (km) Brightness Sun altitude
Rises 01:46:58 0° 209° (SSW) 3,217 6.7 -29.8°
Reaches altitude 10° 01:50:18 10° 232° (SW) 2,295 6.1 -30.5°
Maximum altitude 01:53:05 15° 266° (W) 1,982 5.9 -31.1°
Drops below altitude 10° 01:55:53 10° 300° (WNW) 2,302 6.1 -31.7°
Sets 01:59:15 0° 324° (NW) 3,232 6.6 -32.4°
